QPF
0.00 0.00 0.00 0.00 0.00 0.00 0.00 0.00 0.00 0.00 0.00 0.00 0.00 0.00 0.00 0.00 0.00 0.00 0.00 0.00 0.00 0.00 0.00 0.01 0.01 0.03 0.03 0.04 0.02 0.01 0.01 0.02 0.05 0.07 0.08 0.07 0.07 0.05 0.05 0.03 0.02 0.02 0.02
0.00 0.00 0.00 0.00 0.00 0.00 0.00 0.00 0.00 0.00 0.00 0.00 0.00 0.00 0.00 0.00 0.00 0.00 0.00 0.00 0.00 0.00 0.00 0.00 0.01 0.00 0.00 0.01 0.00 0.00 0.00 0.00 0.01 0.02 0.01 0.01 0.01 0.01 0.01 0.01 0.01 0.01 0.01
0.00 0.00 0.00 0.00 0.00 0.00 0.00 0.00 0.00 0.00 0.00 0.00 0.00 0.00 0.00 0.00 0.00 0.00 0.00 0.00 0.00 0.00 0.00 0.00 0.00 0.00 0.00 0.00 0.00 0.00 0.00 0.00 0.00 0.00 0.00 0.00 0.00 0.00 0.00 0.01 0.01 0.01 0.01
0.00 0.00 0.00 0.00 0.00 0.00 0.00 0.00 0.00 0.00 0.00 0.00 0.00 0.00 0.00 0.00 0.00 0.00 0.00 0.00 0.00 0.00 0.00 0.00 0.00 0.00 0.00 0.00 0.00 0.00 0.00 0.00 0.00 0.00 0.00 0.00 0.00 0.00 0.00 0.00 0.00 0.00 0.00
0.00 0.00 0.00 0.00 0.00 0.00 0.00 0.00 0.00 0.00 0.00 0.00 0.00 0.00 0.00 0.00 0.00 0.00 0.00 0.00 0.00 0.00 0.00 0.00 0.00 0.00 0.00 0.00 0.00 0.00 0.00 0.00 0.00 0.00 0.00 0.00 0.00 0.00 0.00 0.00 0.00 0.00 0.00
0.00 0.00 0.00 0.00 0.00 0.00 0.00 0.00 0.00 0.00 0.00 0.00 0.00 0.00 0.00 0.00 0.00 0.00 0.00 0.00 0.00 0.00 0.00 0.00 0.00 0.00 0.00 0.00 0.00 0.00 0.00 0.00 0.00 0.00 0.00 0.00 0.00 0.00 0.00 0.00 0.00 0.00 0.00
0.00 0.00 0.00 0.00 0.00 0.00 0.00 0.00 0.00 0.00 0.00 0.00 0.00 0.00 0.00 0.00 0.00 0.00 0.00 0.00 0.00 0.00 0.00 0.00 0.00 0.00 0.00 0.00 0.00 0.00 0.00 0.00 0.00 0.00 0.00 0.00 0.00 0.00 0.00 0.00 0.00 0.00 0.00
0.00 0.00 0.00 0.00 0.00 0.00 0.00 0.00 0.00 0.00 0.00 0.00 0.00 0.00 0.00 0.00 0.00 0.00 0.00 0.00 0.00 0.00 0.00 0.00 0.00 0.00 0.00 0.00 0.00 0.00 0.00 0.00 0.00 0.00 0.00 0.00 0.00 0.00 0.00 0.00 0.00 0.00 0.00
0.00 0.00 0.00 0.00 0.00 0.00 0.00 0.00 0.00 0.00 0.00 0.00 0.00 0.00 0.00 0.00 0.00 0.00 0.00 0.00 0.00 0.00 0.00 0.00 0.00 0.00 0.00 0.00 0.00 0.00 0.00 0.00 0.00 0.00 0.00 0.00 0.00 0.00 0.00 0.00 0.00 0.00 0.00
0.00 0.00 0.00 0.00 0.00 0.00 0.00 0.00 0.00 0.00 0.00 0.00 0.00 0.00 0.00 0.00 0.00 0.00 0.00 0.00 0.00 0.00 0.00 0.00 0.00 0.00 0.00 0.00 0.00 0.00 0.00 0.00 0.00 0.00 0.00 0.00 0.00 0.00 0.00 0.00 0.00 0.00 0.00
0.00 0.00 0.00 0.00 0.00 0.00 0.00 0.00 0.00 0.00 0.00 0.00 0.00 0.00 0.00 0.00 0.00 0.00 0.00 0.00 0.00 0.00 0.00 0.00 0.00 0.00 0.00 0.00 0.00 0.00 0.00 0.00 0.00 0.00 0.00 0.00 0.00 0.00 0.00 0.00 0.00 0.00 0.00
0.00 0.00 0.00 0.00 0.00 0.00 0.00 0.00 0.00 0.00 0.00 0.00 0.00 0.00 0.00 0.00 0.00 0.00 0.00 0.00 0.00 0.00 0.00 0.00 0.00 0.00 0.00 0.00 0.00 0.00 0.00 0.00 0.00 0.00 0.00 0.00 0.00 0.00 0.00 0.00 0.00 0.00 0.00
0.00 0.00 0.00 0.00 0.00 0.00 0.00 0.00 0.00 0.00 0.00 0.00 0.00 0.00 0.00 0.00 0.00 0.00 0.00 0.00 0.00 0.00 0.00 0.00 0.00 0.00 0.00 0.00 0.00 0.00 0.00 0.00 0.00 0.00 0.00 0.00 0.00 0.00 0.00 0.00 0.00 0.00 0.00
0.00 0.00 0.00 0.00 0.00 0.00 0.00 0.00 0.00 0.00 0.00 0.00 0.00 0.00 0.00 0.00 0.00 0.00 0.00 0.00 0.00 0.00 0.00 0.00 0.00 0.00 0.00 0.00 0.00 0.00 0.00 0.00 0.00 0.00 0.00 0.00 0.00 0.00 0.00 0.00 0.00 0.00 0.00
0.00 0.00 0.00 0.00 0.00 0.00 0.00 0.00 0.00 0.00 0.00 0.00 0.00 0.00 0.00 0.00 0.00 0.00 0.00 0.00 0.00 0.00 0.00 0.00 0.00 0.00 0.00 0.00 0.00 0.00 0.00 0.00 0.00 0.00 0.00 0.00 0.00 0.00 0.00 0.00 0.00 0.00 0.00
0.00 0.00 0.00 0.00 0.00 0.00 0.00 0.00 0.00 0.00 0.00 0.00 0.00 0.00 0.00 0.00 0.00 0.00 0.00 0.00 0.00 0.00 0.00 0.00 0.00 0.00 0.00 0.00 0.00 0.00 0.00 0.00 0.00 0.00 0.00 0.00 0.00 0.00 0.00 0.00 0.00 0.00 0.00
0.00 0.00 0.00 0.00 0.00 0.00 0.00 0.00 0.00 0.00 0.00 0.00 0.00 0.00 0.00 0.00 0.00 0.00 0.00 0.00 0.00 0.00 0.00 0.00 0.00 0.00 0.00 0.00 0.00 0.00 0.00 0.00 0.00 0.00 0.00 0.00 0.00 0.00 0.00 0.00 0.00 0.00 0.00
0.00 0.00 0.00 0.00 0.00 0.00 0.00 0.00 0.00 0.00 0.00 0.00 0.00 0.00 0.00 0.00 0.00 0.00 0.00 0.00 0.00 0.00 0.00 0.00 0.00 0.00 0.00 0.00 0.00 0.00 0.00 0.00 0.00 0.00 0.00 0.00 0.00 0.00 0.00 0.00 0.00 0.00 0.00
0.00 0.00 0.00 0.00 0.00 0.00 0.00 0.00 0.00 0.00 0.00 0.00 0.00 0.00 0.00 0.00 0.00 0.00 0.00 0.00 0.00 0.00 0.00 0.00 0.00 0.00 0.00 0.00 0.00 0.00 0.00 0.00 0.00 0.00 0.00 0.00 0.00 0.00 0.00 0.00 0.00 0.00 0.00
0.00 0.00 0.00 0.00 0.00 0.00 0.00 0.00 0.00 0.00 0.00 0.00 0.00 0.00 0.00 0.00 0.00 0.00 0.00 0.00 0.00 0.00 0.00 0.00 0.00 0.00 0.00 0.00 0.00 0.00 0.00 0.00 0.00 0.00 0.00 0.00 0.00 0.00 0.00 0.00 0.00 0.00 0.00
0.00 0.00 0.00 0.00 0.00 0.00 0.00 0.00 0.00 0.00 0.00 0.00 0.00 0.00 0.00 0.00 0.00 0.00 0.00 0.00 0.00 0.00 0.00 0.00 0.00 0.00 0.00 0.00 0.00 0.00 0.00 0.00 0.00 0.00 0.00 0.00 0.00 0.00 0.00 0.00 0.00 0.00 0.00
0.00 0.00 0.00 0.00 0.00 0.00 0.00 0.00 0.00 0.00 0.00 0.00 0.00 0.00 0.00 0.00 0.00 0.00 0.00 0.00 0.00 0.00 0.00 0.00 0.00 0.00 0.00 0.00 0.00 0.01 0.00 0.00 0.00 0.00 0.00 0.00 0.00 0.00 0.00 0.00 0.00 0.00 0.00
0.00 0.00 0.00 0.00 0.00 0.00 0.00 0.00 0.00 0.00 0.00 0.00 0.00 0.00 0.00 0.00 0.00 0.00 0.00 0.00 0.00 0.00 0.00 0.00 0.00 0.00 0.00 0.00 0.00 0.00 0.01 0.00 0.00 0.00 0.00 0.00 0.00 0.00 0.00 0.00 0.00 0.00 0.00
0.00 0.00 0.00 0.00 0.00 0.00 0.00 0.00 0.00 0.00 0.00 0.00 0.00 0.00 0.00 0.00 0.00 0.00 0.00 0.00 0.00 0.00 0.00 0.00 0.00 0.00 0.00 0.00 0.00 0.00 0.00 0.00 0.00 0.00 0.00 0.00 0.00 0.00 0.00 0.00 0.00 0.00 0.00
0.00 0.00 0.00 0.00 0.00 0.00 0.00 0.00 0.00 0.00 0.00 0.00 0.00 0.00 0.00 0.00 0.00 0.00 0.00 0.00 0.00 0.00 0.00 0.00 0.00 0.00 0.00 0.00 0.00 0.00 0.00 0.00 0.00 0.00 0.00 0.00 0.00 0.00 0.00 0.00 0.00 0.00 0.00
0.00 0.00 0.00 0.00 0.00 0.00 0.00 0.00 0.00 0.00 0.00 0.00 0.00 0.00 0.00 0.00 0.00 0.00 0.00 0.00 0.00 0.00 0.00 0.00 0.00 0.00 0.00 0.00 0.00 0.00 0.00 0.00 0.00 0.00 0.00 0.00 0.00 0.00 0.00 0.00 0.00 0.00 0.00
MSLP
1024.90 1024.47 1024.18 1024.20 1023.56 1022.96 1022.48 1021.71 1021.00 1020.02 1018.93 1017.81 1017.04 1015.94 1014.68 1013.08 1012.73 1011.71 1009.94 1009.42 1009.81 1008.88 1008.13 1006.86 1006.97 1006.81 1006.40 1005.85 1005.76 1005.22 1005.27 1005.67 1004.79 1006.58 1007.39 1008.90 1009.78 1008.91 1009.17 1009.32 1009.61 1009.97 1010.23
1025.56 1025.23 1024.93 1024.86 1024.30 1023.45 1023.20 1022.45 1021.81 1020.88 1019.96 1018.89 1018.17 1016.61 1015.74 1015.10 1014.26 1012.15 1012.07 1011.31 1011.64 1010.74 1009.96 1009.12 1009.27 1009.15 1008.43 1008.08 1007.72 1007.69 1007.63 1007.20 1006.21 1005.78 1008.13 1009.15 1012.75 1010.38 1010.47 1010.59 1010.61 1010.99 1010.79
1025.66 1025.69 1025.48 1024.87 1024.44 1023.89 1023.65 1023.00 1022.42 1021.67 1020.78 1020.08 1019.09 1018.37 1017.31 1016.44 1015.43 1013.45 1013.98 1014.05 1013.44 1012.20 1011.69 1011.35 1011.13 1011.05 1010.43 1010.27 1009.83 1008.79 1008.47 1008.04 1007.91 1008.70 1010.58 1011.30 1012.92 1011.76 1011.25 1011.76 1011.48 1011.95 1011.37
1025.97 1025.33 1025.49 1025.14 1024.38 1023.79 1023.77 1023.25 1022.52 1022.12 1021.67 1021.15 1020.66 1020.14 1018.59 1017.60 1016.42 1015.55 1015.31 1015.45 1014.67 1014.63 1014.20 1013.80 1012.94 1013.25 1012.34 1012.34 1012.09 1011.24 1010.01 1009.62 1009.93 1011.33 1012.26 1012.77 1013.81 1013.42 1012.61 1012.66 1012.70 1012.23 1012.06
1026.15 1025.56 1025.35 1024.88 1024.82 1024.08 1023.68 1023.27 1022.66 1022.15 1021.89 1021.49 1021.48 1020.82 1019.78 1018.85 1018.32 1017.61 1017.69 1017.56 1016.50 1015.89 1015.90 1015.14 1014.88 1014.47 1014.35 1014.68 1013.39 1013.88 1011.78 1011.91 1012.02 1012.28 1013.25 1013.15 1013.79 1014.01 1014.43 1014.01 1013.63 1012.91 1013.07
1025.66 1025.36 1025.64 1025.34 1024.94 1024.71 1024.03 1023.69 1023.19 1022.64 1022.30 1021.89 1021.36 1021.17 1020.84 1020.48 1020.11 1019.16 1019.35 1018.97 1018.15 1018.35 1017.59 1017.36 1017.47 1015.18 1015.74 1015.67 1015.47 1016.63 1014.81 1014.38 1014.30 1013.98 1014.25 1014.67 1015.43 1015.44 1014.78 1014.33 1014.89 1014.17 1013.64
1025.92 1025.76 1025.75 1025.88 1025.59 1025.37 1024.93 1024.26 1023.83 1023.50 1023.13 1022.65 1022.19 1021.75 1021.96 1021.87 1021.10 1020.63 1020.30 1020.25 1019.87 1019.63 1018.86 1018.43 1018.33 1018.35 1017.82 1017.16 1017.36 1017.36 1016.74 1016.59 1015.99 1015.64 1016.27 1016.95 1016.75 1016.98 1016.49 1015.76 1015.89 1015.67 1015.29
1026.22 1026.19 1026.33 1026.35 1026.31 1026.04 1025.67 1025.14 1024.80 1024.46 1024.17 1023.94 1023.54 1023.24 1023.03 1023.41 1023.14 1022.26 1021.59 1021.13 1020.84 1021.00 1021.00 1020.90 1021.05 1020.10 1019.33 1018.12 1018.57 1018.47 1018.64 1017.60 1017.48 1017.65 1018.57 1018.55 1018.35 1018.78 1018.21 1017.19 1016.91 1016.43 1016.01
1026.79 1026.89 1027.15 1027.07 1026.92 1026.70 1026.49 1026.22 1025.94 1025.60 1025.47 1025.28 1025.18 1025.06 1024.59 1024.72 1024.43 1023.47 1022.32 1022.14 1022.26 1022.58 1022.44 1022.39 1021.70 1020.84 1020.57 1020.26 1020.02 1019.52 1019.39 1019.95 1020.44 1019.62 1019.55 1019.47 1019.77 1019.92 1019.18 1017.90 1017.48 1016.79 1016.53
1027.68 1027.75 1027.72 1027.93 1027.91 1027.92 1027.70 1027.27 1026.99 1026.72 1026.47 1026.54 1026.50 1026.31 1026.30 1025.99 1025.98 1025.39 1024.05 1023.43 1023.29 1023.01 1023.47 1023.59 1023.80 1023.43 1023.35 1022.88 1021.50 1020.50 1020.57 1021.01 1020.31 1020.13 1020.09 1019.41 1020.12 1020.02 1019.74 1019.62 1019.23 1018.31 1017.93
1027.97 1028.11 1028.24 1028.45 1028.53 1028.29 1028.16 1028.06 1027.92 1027.71 1027.51 1027.29 1027.14 1027.25 1027.23 1027.44 1027.14 1026.70 1026.34 1025.75 1025.17 1024.95 1024.95 1024.69 1024.63 1024.32 1023.50 1023.16 1022.69 1022.59 1022.52 1021.93 1021.35 1020.99 1020.28 1020.43 1020.31 1020.45 1020.36 1020.28 1020.31 1019.57 1019.04
1027.91 1028.17 1028.51 1028.60 1028.67 1028.83 1028.62 1028.42 1028.32 1028.03 1027.87 1027.64 1027.35 1027.15 1027.36 1027.38 1027.81 1027.72 1027.57 1027.56 1026.85 1026.42 1026.19 1026.21 1026.08 1025.55 1024.92 1024.49 1024.18 1024.03 1023.40 1022.51 1022.18 1021.99 1021.69 1021.68 1021.52 1021.44 1021.24 1020.63 1020.28 1019.99 1019.58
1027.81 1028.15 1028.45 1028.68 1028.82 1028.84 1028.68 1028.71 1028.26 1028.25 1028.06 1027.92 1027.74 1027.52 1027.46 1027.50 1027.35 1027.51 1027.78 1027.86 1027.84 1027.31 1027.37 1027.28 1026.73 1026.32 1025.47 1025.20 1025.20 1024.94 1024.42 1024.21 1023.95 1023.21 1022.80 1022.64 1022.60 1022.49 1021.87 1021.24 1020.60 1020.05 1019.37
1027.56 1027.98 1028.29 1028.47 1028.67 1028.71 1028.68 1028.81 1028.83 1028.74 1028.60 1028.59 1028.43 1028.26 1028.25 1028.19 1028.35 1028.25 1027.82 1027.81 1027.81 1027.44 1026.73 1026.30 1026.13 1025.61 1025.39 1025.08 1024.77 1024.59 1024.70 1024.67 1024.35 1024.05 1024.01 1023.92 1023.52 1022.95 1022.27 1021.93 1021.02 1020.24 1019.29
1027.52 1027.90 1028.21 1028.45 1028.58 1028.84 1029.27 1029.52 1029.55 1030.13 1030.02 1029.42 1029.21 1029.16 1028.99 1028.89 1029.21 1029.37 1029.21 1028.74 1028.60 1028.23 1027.13 1026.71 1026.54 1026.13 1025.68 1025.33 1025.15 1025.09 1025.00 1025.11 1025.01 1024.81 1024.47 1024.06 1023.74 1023.24 1022.57 1022.07 1021.32 1020.43 1019.58
1027.47 1027.78 1028.10 1028.34 1028.61 1028.85 1029.13 1029.83 1030.80 1030.75 1030.82 1030.75 1030.47 1030.20 1029.91 1030.22 1030.06 1029.81 1029.62 1029.49 1029.19 1028.51 1027.32 1027.01 1026.85 1026.66 1026.48 1026.09 1025.81 1025.70 1025.68 1025.65 1025.68 1025.40 1025.12 1024.83 1024.48 1023.96 1023.41 1022.54 1021.93 1021.16 1020.31
1027.43 1027.89 1028.36 1028.59 1028.80 1029.10 1029.46 1029.75 1030.09 1031.03 1031.20 1031.18 1030.99 1030.87 1030.72 1030.55 1030.32 1030.08 1029.86 1029.46 1029.05 1028.23 1027.54 1027.22 1027.16 1027.01 1026.71 1026.52 1026.34 1026.35 1026.39 1026.58 1026.47 1026.20 1025.77 1025.41 1025.18 1024.71 1024.00 1023.22 1022.46 1021.66 1020.92
1028.06 1028.53 1028.69 1029.07 1029.34 1029.59 1029.81 1030.06 1030.26 1030.36 1030.44 1030.62 1030.97 1031.09 1030.94 1030.65 1030.40 1030.18 1029.97 1028.70 1028.18 1027.76 1027.52 1027.32 1027.26 1027.19 1027.05 1026.94 1026.86 1026.94 1027.03 1026.82 1026.71 1026.54 1026.09 1026.06 1025.71 1025.18 1024.42 1023.72 1023.07 1022.49 1021.68
1028.59 1028.82 1029.14 1029.42 1029.66 1029.87 1030.03 1030.14 1030.23 1030.27 1030.27 1030.23 1030.11 1030.17 1030.32 1030.49 1030.16 1029.92 1029.49 1028.93 1028.60 1028.11 1027.88 1027.58 1027.48 1027.36 1027.26 1027.13 1027.21 1027.34 1027.23 1027.00 1027.00 1026.77 1026.41 1026.27 1026.00 1025.58 1024.88 1024.29 1023.61 1022.83 1021.94
1028.75 1029.17 1029.33 1029.50 1029.81 1029.85 1029.95 1029.98 1030.03 1030.07 1030.03 1029.89 1029.78 1029.82 1029.91 1029.84 1029.37 1029.30 1029.26 1029.17 1028.98 1028.67 1028.48 1028.23 1027.95 1027.66 1027.42 1027.27 1027.19 1027.14 1026.93 1026.74 1026.61 1026.50 1026.39 1026.14 1026.01 1025.89 1025.18 1024.53 1023.79 1022.94 1022.05
1028.54 1029.08 1029.31 1029.46 1029.59 1029.74 1029.85 1029.88 1029.94 1029.94 1029.84 1029.76 1029.73 1030.16 1030.79 1030.66 1029.87 1029.65 1029.57 1029.47 1029.49 1029.37 1029.13 1028.95 1028.63 1028.25 1027.84 1027.40 1027.00 1026.68 1026.59 1026.61 1026.63 1026.47 1026.25 1026.12 1026.13 1025.74 1025.27 1024.72 1024.08 1023.33 1022.46
1028.47 1028.73 1029.14 1029.22 1029.44 1029.69 1029.74 1029.86 1029.91 1029.91 1029.87 1029.82 1029.86 1030.08 1030.73 1030.56 1030.20 1030.16 1030.00 1030.00 1030.11 1029.89 1029.66 1029.40 1029.15 1028.71 1028.44 1028.15 1027.67 1027.02 1026.62 1026.42 1026.31 1026.24 1026.16 1026.14 1025.91 1025.53 1025.13 1024.70 1024.03 1023.26 1022.57
1028.60 1028.83 1029.08 1029.28 1029.50 1029.83 1030.00 1029.97 1029.97 1030.04 1029.95 1030.10 1030.36 1030.60 1030.69 1030.71 1030.77 1030.61 1030.53 1030.59 1030.58 1030.52 1030.33 1030.09 1029.86 1029.41 1028.91 1028.93 1028.71 1027.87 1027.14 1026.71 1026.36 1026.20 1026.11 1025.99 1025.66 1025.27 1025.03 1024.41 1023.93 1023.22 1022.48
1028.76 1029.05 1029.27 1029.53 1029.81 1029.84 1029.92 1030.01 1030.18 1030.56 1030.93 1030.81 1030.95 1031.06 1031.10 1031.19 1031.15 1031.03 1030.99 1031.14 1031.33 1031.23 1031.04 1030.69 1030.60 1030.21 1029.92 1029.66 1029.35 1028.53 1028.03 1027.83 1027.57 1026.74 1026.15 1025.64 1025.48 1025.03 1024.78 1024.35 1023.82 1023.24 1022.55
1029.07 1029.31 1029.55 1029.69 1029.83 1029.96 1030.29 1030.44 1030.78 1031.07 1031.25 1031.40 1031.54 1031.69 1031.72 1031.79 1031.69 1031.50 1031.69 1031.79 1031.85 1031.79 1031.58 1031.21 1030.87 1030.63 1030.43 1030.30 1029.87 1029.00 1028.80 1028.68 1027.92 1027.01 1026.09 1025.30 1025.02 1024.79 1024.53 1024.09 1023.65 1023.20 1022.42
1029.19 1029.45 1029.65 1029.95 1030.19 1030.59 1030.82 1031.08 1031.41 1031.74 1031.95 1032.15 1032.32 1032.42 1032.47 1032.35 1032.23 1032.33 1032.22 1032.27 1032.33 1032.27 1031.76 1031.25 1031.11 1030.89 1030.65 1030.00 1029.21 1029.37 1029.12 1028.37 1027.39 1026.21 1025.33 1024.83 1024.53 1024.31 1024.07 1023.84 1023.43 1022.90 1022.06
Thickness
5415 5414 5413 5406 5407 5408 5408 5411 5413 5417 5421 5426 5426 5428 5430 5436 5433 5435 5440 5442 5443 5463 5483 5505 5514 5525 5533 5544 5551 5566 5576 5580 5602 5580 5574 5566 5563 5577 5579 5583 5585 5587 5590
5402 5400 5398 5395 5395 5398 5396 5399 5400 5403 5408 5413 5410 5415 5414 5414 5417 5425 5421 5426 5427 5445 5461 5479 5487 5497 5509 5518 5523 5531 5539 5548 5573 5591 5558 5556 5527 5552 5556 5557 5562 5564 5571
5395 5391 5388 5390 5388 5389 5387 5388 5389 5391 5394 5394 5397 5395 5398 5402 5405 5416 5405 5405 5415 5428 5444 5456 5466 5474 5484 5489 5498 5512 5521 5531 5540 5540 5526 5525 5515 5527 5535 5536 5541 5542 5551
5386 5391 5384 5383 5386 5386 5381 5381 5383 5382 5381 5381 5382 5378 5388 5391 5398 5403 5401 5399 5408 5411 5421 5431 5444 5447 5459 5462 5468 5480 5495 5506 5510 5503 5498 5497 5495 5498 5511 5515 5518 5526 5532
5380 5384 5383 5383 5380 5382 5380 5379 5379 5380 5378 5377 5374 5375 5379 5381 5381 5388 5386 5386 5395 5402 5404 5414 5419 5427 5433 5434 5446 5448 5473 5478 5481 5484 5478 5483 5482 5480 5482 5487 5494 5504 5510
5379 5381 5377 5377 5376 5374 5377 5374 5374 5374 5374 5374 5375 5375 5372 5371 5370 5376 5373 5377 5385 5382 5390 5393 5395 5414 5413 5416 5419 5413 5438 5450 5454 5461 5461 5460 5455 5457 5466 5472 5469 5479 5488
5370 5372 5371 5368 5367 5366 5367 5370 5369 5367 5367 5368 5369 5371 5366 5365 5367 5366 5366 5367 5371 5374 5382 5383 5387 5387 5393 5403 5398 5400 5413 5418 5428 5437 5432 5429 5432 5431 5438 5446 5445 5451 5457
5361 5361 5360 5358 5356 5356 5358 5360 5360 5360 5359 5358 5359 5359 5359 5353 5351 5353 5356 5361 5364 5361 5361 5363 5362 5373 5381 5393 5388 5390 5391 5403 5409 5411 5404 5407 5410 5407 5411 5421 5425 5431 5437
5347 5347 5345 5345 5345 5346 5345 5347 5348 5349 5347 5346 5345 5344 5346 5342 5342 5347 5353 5354 5355 5352 5355 5356 5363 5372 5376 5377 5379 5385 5384 5380 5377 5385 5388 5389 5387 5387 5394 5405 5410 5417 5420
5333 5332 5332 5330 5329 5329 5330 5333 5334 5335 5336 5334 5332 5332 5331 5333 5332 5335 5343 5348 5347 5350 5346 5344 5343 5347 5347 5350 5364 5373 5373 5370 5374 5376 5377 5381 5374 5376 5380 5380 5384 5392 5396
5326 5324 5321 5318 5316 5319 5320 5320 5320 5321 5323 5323 5323 5321 5320 5318 5319 5322 5324 5328 5332 5332 5330 5331 5333 5337 5344 5346 5350 5351 5350 5354 5360 5362 5366 5365 5365 5362 5363 5365 5364 5370 5373
5320 5317 5313 5312 5310 5307 5309 5311 5311 5312 5313 5314 5316 5318 5315 5313 5309 5309 5310 5309 5313 5315 5316 5315 5316 5318 5322 5325 5327 5327 5332 5339 5340 5340 5342 5343 5343 5343 5344 5349 5351 5353 5355
5314 5311 5308 5305 5303 5302 5303 5302 5305 5305 5305 5306 5306 5307 5305 5304 5304 5303 5300 5299 5298 5302 5301 5301 5302 5303 5308 5307 5306 5307 5310 5310 5311 5316 5318 5319 5318 5319 5323 5327 5331 5333 5336
5311 5307 5304 5301 5298 5296 5296 5295 5294 5295 5295 5294 5294 5293 5291 5290 5287 5285 5288 5288 5288 5290 5293 5296 5296 5298 5298 5298 5299 5299 5296 5294 5295 5297 5295 5294 5294 5297 5301 5304 5309 5313 5317
5306 5302 5299 5295 5293 5290 5285 5284 5283 5276 5276 5281 5280 5279 5280 5279 5274 5270 5269 5270 5270 5272 5277 5277 5277 5279 5281 5283 5282 5280 5279 5276 5275 5274 5274 5275 5276 5278 5280 5281 5285 5290 5294
5301 5298 5295 5291 5288 5284 5281 5275 5266 5265 5263 5261 5261 5261 5261 5257 5256 5256 5256 5255 5255 5257 5263 5262 5260 5259 5258 5258 5257 5256 5254 5253 5250 5250 5249 5249 5248 5249 5251 5254 5256 5258 5262
5297 5292 5286 5283 5279 5276 5271 5268 5265 5255 5251 5250 5249 5247 5245 5244 5242 5241 5240 5240 5240 5243 5245 5245 5242 5240 5239 5238 5236 5233 5229 5224 5221 5220 5221 5221 5220 5220 5222 5223 5225 5227 5229
5285 5279 5276 5271 5267 5263 5260 5256 5253 5251 5248 5244 5238 5234 5232 5231 5230 5228 5226 5230 5231 5231 5229 5227 5223 5219 5216 5213 5210 5205 5201 5199 5196 5193 5194 5190 5189 5188 5190 5190 5192 5192 5194
5273 5269 5265 5260 5256 5252 5249 5246 5243 5240 5237 5234 5231 5228 5223 5218 5218 5215 5214 5214 5212 5211 5208 5206 5201 5197 5194 5190 5185 5179 5175 5172 5168 5165 5164 5161 5158 5156 5156 5156 5158 5159 5160
5264 5258 5254 5251 5246 5243 5240 5237 5234 5230 5227 5225 5222 5218 5212 5209 5208 5204 5200 5196 5193 5191 5187 5184 5180 5177 5174 5170 5165 5160 5156 5152 5147 5142 5136 5133 5129 5124 5125 5125 5125 5127 5128
5258 5251 5246 5242 5238 5234 5230 5227 5223 5219 5216 5213 5209 5201 5189 5187 5189 5186 5181 5177 5172 5167 5164 5159 5155 5152 5149 5146 5144 5140 5135 5128 5121 5116 5111 5105 5099 5096 5093 5091 5090 5090 5090
5251 5245 5239 5235 5230 5225 5221 5216 5211 5207 5203 5199 5193 5186 5175 5172 5170 5165 5161 5155 5147 5143 5139 5136 5131 5127 5122 5117 5114 5113 5109 5103 5097 5090 5083 5076 5071 5068 5064 5061 5061 5061 5061
5240 5235 5229 5224 5219 5212 5206 5202 5197 5192 5188 5181 5174 5167 5161 5154 5148 5143 5138 5131 5124 5119 5114 5109 5104 5100 5095 5088 5082 5080 5078 5074 5068 5062 5056 5049 5046 5043 5039 5038 5036 5037 5037
5228 5222 5216 5210 5203 5198 5193 5188 5182 5174 5165 5161 5155 5148 5142 5135 5128 5122 5116 5108 5100 5093 5088 5083 5076 5071 5065 5059 5053 5050 5046 5041 5036 5034 5031 5028 5024 5022 5018 5016 5015 5013 5014
5214 5208 5202 5196 5191 5185 5177 5171 5164 5156 5149 5142 5134 5127 5120 5113 5107 5101 5092 5085 5077 5070 5063 5058 5052 5046 5039 5032 5027 5025 5020 5014 5012 5011 5010 5009 5005 5001 4997 4995 4993 4992 4993
5202 5195 5189 5182 5176 5168 5161 5153 5145 5136 5128 5120 5113 5105 5098 5092 5085 5077 5071 5063 5055 5047 5042 5037 5030 5024 5018 5015 5012 5005 5000 4997 4996 4996 4994 4991 4988 4983 4980 4976 4974 4974 4976